Time,TemperatureF,DewpointF,PressureIn,WindDirection,WindDirectionDegrees,WindSpeedMPH,WindSpeedGustMPH,Humidity,HourlyPrecipIn,Conditions,Clouds,dailyrainin,SoftwareType,DateUTC
2013-03-05 05:10:00,32.8,25.4,29.77,North,0,5.0,16.0,74,0.00,,---,0.00,VWS V14.01,2013-03-05 10:10:00,
2013-03-05 05:24:00,32.9,25.5,29.77,WNW,302,16.0,16.0,74,0.00,,---,0.00,VWS V14.01,2013-03-05 10:24:00,
2013-03-05 05:29:00,33.0,25.3,29.77,WNW,296,5.0,16.0,73,0.00,,---,0.00,VWS V14.01,2013-03-05 10:29:00,
2013-03-05 05:34:00,33.0,25.3,29.78,NNW,328,9.0,16.0,73,0.00,,---,0.00,VWS V14.01,2013-03-05 10:34:00,
2013-03-05 05:39:00,33.2,25.5,29.78,NNW,340,3.0,14.0,73,0.00,,---,0.00,VWS V14.01,2013-03-05 10:39:00,
2013-03-05 05:44:00,33.2,25.5,29.78,NW,311,4.0,14.0,73,0.00,,---,0.00,VWS V14.01,2013-03-05 10:44:00,
2013-03-05 05:54:00,33.3,25.6,29.78,NNW,334,5.0,13.0,73,0.00,,---,0.00,VWS V14.01,2013-03-05 10:54:00,
2013-03-05 06:09:00,33.4,26.0,29.79,NW,311,6.0,10.0,74,0.00,,---,0.00,VWS V14.01,2013-03-05 11:09:00,
2013-03-05 06:14:00,33.4,26.0,29.79,WNW,288,6.0,11.0,74,0.00,,---,0.00,VWS V14.01,2013-03-05 11:14:00,
2013-03-05 06:19:00,33.5,26.1,29.80,WNW,302,5.0,11.0,74,0.00,,---,0.00,VWS V14.01,2013-03-05 11:19:00,
2013-03-05 06:24:00,33.5,26.1,29.80,NW,304,1.0,10.0,74,0.00,,---,0.00,VWS V14.01,2013-03-05 11:24:00,
2013-03-05 06:34:00,33.7,26.3,29.80,WNW,295,6.0,7.0,74,0.00,,---,0.00,VWS V14.01,2013-03-05 11:34:00,
2013-03-05 06:39:00,33.8,26.1,29.80,NNW,337,3.0,10.0,73,0.00,,---,0.00,VWS V14.01,2013-03-05 11:39:00,
2013-03-05 06:44:00,33.9,26.2,29.81,WNW,296,2.0,12.0,73,0.00,,---,0.00,VWS V14.01,2013-03-05 11:44:00,
2013-03-05 06:49:00,33.9,26.2,29.81,WNW,301,3.0,12.0,73,0.00,,---,0.00,VWS V14.01,2013-03-05 11:49:00,
2013-03-05 06:59:00,33.9,26.2,29.81,NW,313,2.0,10.0,73,0.00,,---,0.00,VWS V14.01,2013-03-05 11:59:00,
2013-03-05 07:09:00,33.9,26.2,29.82,WNW,295,3.0,13.0,73,0.00,,---,0.00,VWS V14.01,2013-03-05 12:09:00,
2013-03-05 07:19:00,34.1,26.4,29.82,North,5,2.0,12.0,73,0.00,,---,0.00,VWS V14.01,2013-03-05 12:19:00,
2013-03-05 07:29:00,34.4,26.3,29.82,WNW,299,6.0,15.0,72,0.00,,---,0.00,VWS V14.01,2013-03-05 12:29:00,
2013-03-05 07:39:00,34.4,26.3,29.83,West,270,8.0,15.0,72,0.00,,---,0.00,VWS V14.01,2013-03-05 12:39:00,
2013-03-05 07:44:00,34.8,26.7,29.83,NW,315,3.0,14.0,72,0.00,,---,0.00,VWS V14.01,2013-03-05 12:44:00,
2013-03-05 07:54:00,35.3,26.9,29.84,North,350,3.0,12.0,71,0.00,,---,0.00,VWS V14.01,2013-03-05 12:54:00,
2013-03-05 07:59:00,35.3,26.9,29.84,WNW,303,6.0,17.0,71,0.00,,---,0.00,VWS V14.01,2013-03-05 12:59:00,
2013-03-05 08:09:00,35.3,26.5,29.84,NNW,334,7.0,19.0,70,0.00,,---,0.00,VWS V14.01,2013-03-05 13:09:00,
2013-03-05 08:14:00,35.5,27.0,29.84,NW,309,4.0,12.0,71,0.00,,---,0.00,VWS V14.01,2013-03-05 13:14:00,
2013-03-05 08:19:00,35.7,26.9,29.85,NW,320,6.0,12.0,70,0.00,,---,0.00,VWS V14.01,2013-03-05 13:19:00,
2013-03-05 08:24:00,35.9,27.1,29.85,WNW,294,1.0,14.0,70,0.00,,---,0.00,VWS V14.01,2013-03-05 13:24:00,
2013-03-05 08:29:00,36.1,27.3,29.85,WNW,296,3.0,14.0,70,0.00,,---,0.00,VWS V14.01,2013-03-05 13:29:00,
2013-03-05 08:34:00,36.4,27.2,29.85,NNW,330,3.0,13.0,69,0.00,,---,0.00,VWS V14.01,2013-03-05 13:34:00,
2013-03-05 08:39:00,36.5,27.7,29.85,North,355,4.0,11.0,70,0.00,,---,0.00,VWS V14.01,2013-03-05 13:39:00,
2013-03-05 08:44:00,36.6,27.4,29.85,WNW,298,4.0,10.0,69,0.00,,---,0.00,VWS V14.01,2013-03-05 13:44:00,
2013-03-05 08:54:00,36.8,28.0,29.86,NNW,328,5.0,12.0,70,0.00,,---,0.00,VWS V14.01,2013-03-05 13:54:00,
2013-03-05 08:59:00,37.0,28.1,29.86,NNW,339,3.0,13.0,70,0.00,,---,0.00,VWS V14.01,2013-03-05 13:59:00,
2013-03-05 09:04:00,37.2,28.0,29.86,NNW,342,6.0,13.0,69,0.00,,---,0.00,VWS V14.01,2013-03-05 14:04:00,
2013-03-05 09:09:00,37.4,28.2,29.86,NW,311,3.0,10.0,69,0.00,,---,0.00,VWS V14.01,2013-03-05 14:09:00,
2013-03-05 09:19:00,38.2,28.9,29.86,NNW,338,0.0,11.0,69,0.00,,---,0.00,VWS V14.01,2013-03-05 14:19:00,
2013-03-05 09:24:00,38.7,29.4,29.87,NW,312,6.0,13.0,69,0.00,,---,0.00,VWS V14.01,2013-03-05 14:24:00,
2013-03-05 09:29:00,38.9,29.6,29.87,NNW,333,2.0,7.0,69,0.00,,---,0.00,VWS V14.01,2013-03-05 14:29:00,
2013-03-05 09:39:00,39.1,29.8,29.87,NNW,342,1.0,9.0,69,0.00,,---,0.00,VWS V14.01,2013-03-05 14:39:00,
2013-03-05 09:44:00,39.1,29.8,29.87,NNE,15,5.0,11.0,69,0.00,,---,0.00,VWS V14.01,2013-03-05 14:44:00,
2013-03-05 09:49:00,39.0,29.7,29.87,NW,320,3.0,12.0,69,0.00,,---,0.00,VWS V14.01,2013-03-05 14:49:00,
2013-03-05 09:54:00,39.2,29.9,29.87,North,360,3.0,9.0,69,0.00,,---,0.00,VWS V14.01,2013-03-05 14:54:00,
2013-03-05 10:04:00,39.9,30.6,29.87,NNW,342,6.0,11.0,69,0.00,,---,0.00,VWS V14.01,2013-03-05 15:04:00,
2013-03-05 10:09:00,40.2,30.9,29.87,NW,319,2.0,11.0,69,0.00,,---,0.00,VWS V14.01,2013-03-05 15:09:00,
2013-03-05 10:14:00,40.6,31.2,29.87,North,351,2.0,7.0,69,0.00,,---,0.00,VWS V14.01,2013-03-05 15:14:00,
2013-03-05 10:19:00,40.9,31.2,29.87,NNW,345,3.0,11.0,68,0.00,,---,0.00,VWS V14.01,2013-03-05 15:19:00,
2013-03-05 10:24:00,40.7,31.0,29.87,NNW,336,4.0,9.0,68,0.00,,---,0.00,VWS V14.01,2013-03-05 15:24:00,
2013-03-05 10:34:00,40.6,30.9,29.87,WNW,300,11.0,11.0,68,0.00,,---,0.00,VWS V14.01,2013-03-05 15:34:00,
2013-03-05 10:39:00,40.9,31.2,29.87,North,355,6.0,11.0,68,0.00,,---,0.00,VWS V14.01,2013-03-05 15:39:00,
2013-03-05 10:44:00,40.8,31.1,29.87,NNW,333,2.0,13.0,68,0.00,,---,0.00,VWS V14.01,2013-03-05 15:44:00,
2013-03-05 10:49:00,41.1,31.4,29.87,NNW,336,9.0,11.0,68,0.00,,---,0.00,VWS V14.01,2013-03-05 15:49:00,
2013-03-05 10:59:00,41.8,31.7,29.87,NNW,337,11.0,11.0,67,0.00,,---,0.00,VWS V14.01,2013-03-05 15:59:00,
2013-03-05 11:04:00,41.6,31.5,29.87,North,355,5.0,12.0,67,0.00,,---,0.00,VWS V14.01,2013-03-05 16:04:00,
2013-03-05 11:14:00,42.0,31.5,29.88,NNW,340,6.0,12.0,66,0.00,,---,0.00,VWS V14.01,2013-03-05 16:14:00,
2013-03-05 11:24:00,41.9,31.8,29.88,NNE,26,3.0,9.0,67,0.00,,---,0.00,VWS V14.01,2013-03-05 16:24:00,
2013-03-05 11:29:00,42.1,31.6,29.88,North,355,3.0,9.0,66,0.00,,---,0.00,VWS V14.01,2013-03-05 16:29:00,
2013-03-05 11:34:00,42.5,32.0,29.88,NNW,340,2.0,6.0,66,0.00,,---,0.00,VWS V14.01,2013-03-05 16:34:00,
2013-03-05 11:39:00,42.9,32.0,29.88,NNW,341,1.0,5.0,65,0.00,,---,0.00,VWS V14.01,2013-03-05 16:39:00,
2013-03-05 11:49:00,43.3,32.3,29.89,North,360,5.0,7.0,65,0.00,,---,0.00,VWS V14.01,2013-03-05 16:49:00,
2013-03-05 11:54:00,43.2,32.2,29.89,ENE,65,0.0,6.0,65,0.00,,---,0.00,VWS V14.01,2013-03-05 16:54:00,
2013-03-05 11:59:00,43.3,32.3,29.89,ENE,74,1.0,5.0,65,0.00,,---,0.00,VWS V14.01,2013-03-05 16:59:00,
2013-03-05 12:04:00,43.4,32.4,29.89,North,355,1.0,4.0,65,0.00,,---,0.00,VWS V14.01,2013-03-05 17:04:00,
2013-03-05 12:09:00,43.5,32.5,29.89,North,355,5.0,5.0,65,0.00,,---,0.00,VWS V14.01,2013-03-05 17:09:00,
2013-03-05 12:14:00,43.6,32.6,29.89,NNE,15,1.0,6.0,65,0.00,,---,0.00,VWS V14.01,2013-03-05 17:14:00,
2013-03-05 12:24:00,43.5,32.5,29.89,NNW,346,1.0,6.0,65,0.00,,---,0.00,VWS V14.01,2013-03-05 17:24:00,
2013-03-05 12:29:00,43.6,32.6,29.89,North,5,2.0,5.0,65,0.00,,---,0.00,VWS V14.01,2013-03-05 17:29:00,
2013-03-05 12:34:00,43.8,33.2,29.89,East,97,1.0,4.0,66,0.00,,---,0.00,VWS V14.01,2013-03-05 17:34:00,
2013-03-05 12:39:00,43.8,33.2,29.89,NNE,33,1.0,5.0,66,0.00,,---,0.00,VWS V14.01,2013-03-05 17:39:00,
2013-03-05 12:44:00,43.8,33.6,29.89,East,83,4.0,7.0,67,0.00,,---,0.00,VWS V14.01,2013-03-05 17:44:00,
2013-03-05 12:49:00,43.4,33.2,29.89,ENE,57,6.0,7.0,67,0.00,,---,0.00,VWS V14.01,2013-03-05 17:49:00,
2013-03-05 12:59:00,43.2,34.1,29.89,East,80,3.0,9.0,70,0.00,,---,0.00,VWS V14.01,2013-03-05 17:59:00,
2013-03-05 13:04:00,42.9,34.2,29.90,NE,40,5.0,11.0,71,0.00,,---,0.00,VWS V14.01,2013-03-05 18:04:00,
2013-03-05 13:09:00,43.0,34.6,29.90,ENE,74,2.0,9.0,72,0.00,,---,0.00,VWS V14.01,2013-03-05 18:09:00,
2013-03-05 13:19:00,42.7,35.0,29.90,East,84,4.0,11.0,74,0.00,,---,0.00,VWS V14.01,2013-03-05 18:19:00,
2013-03-05 13:24:00,42.7,35.0,29.90,ESE,103,2.0,9.0,74,0.00,,---,0.00,VWS V14.01,2013-03-05 18:24:00,
2013-03-05 13:34:00,42.8,35.1,29.90,NE,39,3.0,7.0,74,0.00,,---,0.00,VWS V14.01,2013-03-05 18:34:00,
2013-03-05 13:39:00,43.2,35.5,29.91,NE,55,3.0,9.0,74,0.00,,---,0.00,VWS V14.01,2013-03-05 18:39:00,
2013-03-05 13:44:00,43.3,35.6,29.91,NNE,17,4.0,9.0,74,0.00,,---,0.00,VWS V14.01,2013-03-05 18:44:00,
2013-03-05 13:49:00,43.1,35.4,29.91,ENE,69,5.0,10.0,74,0.00,,---,0.00,VWS V14.01,2013-03-05 18:49:00,
2013-03-05 13:54:00,42.8,35.4,29.91,ENE,59,4.0,11.0,75,0.00,,---,0.00,VWS V14.01,2013-03-05 18:54:00,
2013-03-05 13:59:00,42.8,35.1,29.91,ENE,61,4.0,10.0,74,0.00,,---,0.00,VWS V14.01,2013-03-05 18:59:00,
2013-03-05 14:09:00,42.7,35.0,29.91,NE,40,2.0,8.0,74,0.00,,---,0.00,VWS V14.01,2013-03-05 19:09:00,
2013-03-05 14:14:00,42.8,35.1,29.91,NE,38,4.0,7.0,74,0.00,,---,0.00,VWS V14.01,2013-03-05 19:14:00,
2013-03-05 14:19:00,42.8,35.1,29.91,NE,49,2.0,5.0,74,0.00,,---,0.00,VWS V14.01,2013-03-05 19:19:00,
2013-03-05 14:24:00,42.9,34.8,29.91,NE,43,2.0,6.0,73,0.00,,---,0.00,VWS V14.01,2013-03-05 19:24:00,
2013-03-05 14:29:00,43.1,35.4,29.92,North,5,3.0,7.0,74,0.00,,---,0.00,VWS V14.01,2013-03-05 19:29:00,
2013-03-05 14:39:00,42.8,35.8,29.92,ENE,67,2.0,12.0,76,0.00,,---,0.00,VWS V14.01,2013-03-05 19:39:00,
2013-03-05 14:44:00,42.7,35.7,29.92,ENE,58,1.0,6.0,76,0.00,,---,0.00,VWS V14.01,2013-03-05 19:44:00,
2013-03-05 14:54:00,42.8,35.8,29.92,NNE,33,3.0,7.0,76,0.00,,---,0.00,VWS V14.01,2013-03-05 19:54:00,
2013-03-05 14:59:00,42.8,35.8,29.92,NE,41,4.0,6.0,76,0.00,,---,0.00,VWS V14.01,2013-03-05 19:59:00,
2013-03-05 15:09:00,42.8,35.8,29.92,NE,46,1.0,7.0,76,0.00,,---,0.00,VWS V14.01,2013-03-05 20:09:00,
2013-03-05 15:14:00,42.7,36.0,29.93,NE,44,2.0,6.0,77,0.00,,---,0.00,VWS V14.01,2013-03-05 20:14:00,
2013-03-05 15:19:00,42.8,36.1,29.92,NE,44,2.0,5.0,77,0.00,,---,0.00,VWS V14.01,2013-03-05 20:19:00,
2013-03-05 15:24:00,42.9,36.2,29.93,North,5,2.0,7.0,77,0.00,,---,0.00,VWS V14.01,2013-03-05 20:24:00,
2013-03-05 15:29:00,42.9,35.9,29.93,NE,42,2.0,6.0,76,0.00,,---,0.00,VWS V14.01,2013-03-05 20:29:00,
2013-03-05 15:39:00,43.3,36.6,29.93,East,92,9.0,9.0,77,0.00,,---,0.00,VWS V14.01,2013-03-05 20:39:00,
2013-03-05 15:44:00,43.1,36.1,29.93,East,91,4.0,10.0,76,0.00,,---,0.00,VWS V14.01,2013-03-05 20:44:00,
2013-03-05 15:54:00,42.8,36.1,29.94,East,79,1.0,6.0,77,0.00,,---,0.00,VWS V14.01,2013-03-05 20:54:00,
2013-03-05 15:59:00,42.7,36.0,29.94,ENE,67,4.0,9.0,77,0.00,,---,0.00,VWS V14.01,2013-03-05 20:59:00,
2013-03-05 16:04:00,42.7,35.7,29.94,ENE,78,4.0,9.0,76,0.00,,---,0.00,VWS V14.01,2013-03-05 21:04:00,
2013-03-05 16:14:00,42.7,36.0,29.95,NNE,21,1.0,8.0,77,0.00,,---,0.00,VWS V14.01,2013-03-05 21:14:00,
2013-03-05 16:19:00,42.6,35.9,29.95,NNE,21,4.0,5.0,77,0.00,,---,0.00,VWS V14.01,2013-03-05 21:19:00,
2013-03-05 16:24:00,42.6,35.9,29.95,North,9,5.0,7.0,77,0.00,,---,0.00,VWS V14.01,2013-03-05 21:24:00,
2013-03-05 16:29:00,42.6,35.9,29.95,North,5,3.0,6.0,77,0.00,,---,0.00,VWS V14.01,2013-03-05 21:29:00,
2013-03-05 16:34:00,42.6,35.9,29.95,North,5,5.0,5.0,77,0.00,,---,0.00,VWS V14.01,2013-03-05 21:34:00,
2013-03-05 16:39:00,42.8,35.8,29.96,NE,38,3.0,6.0,76,0.00,,---,0.00,VWS V14.01,2013-03-05 21:39:00,
2013-03-05 16:44:00,42.8,35.8,29.96,NE,49,1.0,9.0,76,0.00,,---,0.00,VWS V14.01,2013-03-05 21:44:00,
2013-03-05 16:54:00,42.6,35.6,29.96,NNE,33,3.0,5.0,76,0.00,,---,0.00,VWS V14.01,2013-03-05 21:54:00,
2013-03-05 16:59:00,42.5,35.5,29.96,NE,34,4.0,6.0,76,0.00,,---,0.00,VWS V14.01,2013-03-05 21:59:00,
2013-03-05 17:04:00,42.4,35.4,29.96,NNE,33,2.0,6.0,76,0.00,,---,0.00,VWS V14.01,2013-03-05 22:04:00,
2013-03-05 17:09:00,42.3,35.6,29.96,NE,34,1.0,3.0,77,0.00,,---,0.00,VWS V14.01,2013-03-05 22:09:00,
2013-03-05 17:19:00,42.1,35.4,29.96,NNE,33,0.0,3.0,77,0.00,,---,0.00,VWS V14.01,2013-03-05 22:19:00,
2013-03-05 17:29:00,41.8,35.5,29.97,NNE,33,1.0,4.0,78,0.00,,---,0.00,VWS V14.01,2013-03-05 22:29:00,
2013-03-05 17:34:00,41.7,35.4,29.97,NE,34,4.0,4.0,78,0.00,,---,0.00,VWS V14.01,2013-03-05 22:34:00,
2013-03-05 17:39:00,41.5,35.5,29.97,NE,34,3.0,4.0,79,0.00,,---,0.00,VWS V14.01,2013-03-05 22:39:00,
2013-03-05 17:44:00,41.4,35.4,29.97,NE,34,0.0,4.0,79,0.00,,---,0.00,VWS V14.01,2013-03-05 22:44:00,
2013-03-05 17:49:00,41.2,35.2,29.97,NE,34,0.0,3.0,79,0.00,,---,0.00,VWS V14.01,2013-03-05 22:49:00,
2013-03-05 17:54:00,41.1,35.4,29.97,NE,34,1.0,2.0,80,0.00,,---,0.00,VWS V14.01,2013-03-05 22:54:00,
2013-03-05 18:04:00,40.8,35.1,29.97,NE,34,1.0,1.0,80,0.00,,---,0.00,VWS V14.01,2013-03-05 23:04:00,
2013-03-05 18:14:00,40.5,35.1,29.98,NE,34,0.0,1.0,81,0.00,,---,0.00,VWS V14.01,2013-03-05 23:14:00,
2013-03-05 18:19:00,40.3,34.9,29.98,NNE,33,0.0,0.0,81,0.00,,---,0.00,VWS V14.01,2013-03-05 23:19:00,
2013-03-05 18:24:00,40.0,34.7,29.97,NE,34,0.0,0.0,81,0.00,,---,0.00,VWS V14.01,2013-03-05 23:24:00,
2013-03-05 18:29:00,39.9,34.9,29.98,NE,34,0.0,0.0,82,0.00,,---,0.00,VWS V14.01,2013-03-05 23:29:00,
2013-03-05 18:34:00,39.8,34.8,29.97,NNE,33,0.0,0.0,82,0.00,,---,0.00,VWS V14.01,2013-03-05 23:34:00,
2013-03-05 18:44:00,39.5,34.8,29.98,NNE,33,0.0,0.0,83,0.00,,---,0.00,VWS V14.01,2013-03-05 23:44:00,
2013-03-05 18:49:00,39.5,35.1,29.98,NE,34,1.0,2.0,84,0.00,,---,0.00,VWS V14.01,2013-03-05 23:49:00,
2013-03-05 18:54:00,39.6,35.2,29.98,NE,34,0.0,1.0,84,0.00,,---,0.00,VWS V14.01,2013-03-05 23:54:00,
2013-03-05 18:59:00,39.6,35.2,29.98,NNE,33,0.0,0.0,84,0.00,,---,0.00,VWS V14.01,2013-03-05 23:59:00,
2013-03-05 19:04:00,39.6,35.5,29.98,NE,34,0.0,1.0,85,0.00,,---,0.00,VWS V14.01,2013-03-06 00:04:00,
2013-03-05 19:09:00,39.5,35.1,29.98,NE,34,0.0,0.0,84,0.00,,---,0.00,VWS V14.01,2013-03-06 00:09:00,
2013-03-05 19:14:00,39.4,35.0,29.98,NNE,33,0.0,0.0,84,0.00,,---,0.00,VWS V14.01,2013-03-06 00:14:00,
2013-03-05 19:19:00,39.3,35.2,29.98,NE,34,0.0,0.0,85,0.00,,---,0.00,VWS V14.01,2013-03-06 00:19:00,
2013-03-05 19:24:00,39.1,35.0,29.98,NE,34,0.0,0.0,85,0.00,,---,0.00,VWS V14.01,2013-03-06 00:24:00,
2013-03-05 19:34:00,39.1,35.0,29.99,NNE,33,0.0,2.0,85,0.00,,---,0.00,VWS V14.01,2013-03-06 00:34:00,
2013-03-05 19:39:00,39.1,35.0,29.99,NE,34,0.0,1.0,85,0.00,,---,0.00,VWS V14.01,2013-03-06 00:39:00,
2013-03-05 19:49:00,38.8,35.0,29.99,NE,34,0.0,3.0,86,0.00,,---,0.00,VWS V14.01,2013-03-06 00:49:00,
2013-03-05 19:54:00,38.8,35.0,29.99,NNE,33,1.0,1.0,86,0.00,,---,0.00,VWS V14.01,2013-03-06 00:54:00,
2013-03-05 20:04:00,38.7,34.9,30.00,NE,34,2.0,2.0,86,0.00,,---,0.00,VWS V14.01,2013-03-06 01:04:00,
2013-03-05 20:09:00,38.7,34.9,30.00,NNE,33,0.0,3.0,86,0.00,,---,0.00,VWS V14.01,2013-03-06 01:09:00,
2013-03-05 20:19:00,38.8,35.3,29.99,NE,34,0.0,1.0,87,0.00,,---,0.00,VWS V14.01,2013-03-06 01:19:00,
2013-03-05 20:24:00,38.9,35.4,29.99,NE,34,0.0,2.0,87,0.00,,---,0.00,VWS V14.01,2013-03-06 01:24:00,
2013-03-05 20:29:00,39.1,35.6,29.99,NNE,33,0.0,3.0,87,0.00,,---,0.00,VWS V14.01,2013-03-06 01:29:00,
2013-03-05 20:34:00,39.1,35.3,29.99,NE,34,2.0,3.0,86,0.00,,---,0.00,VWS V14.01,2013-03-06 01:34:00,
2013-03-05 20:39:00,39.1,35.3,29.99,NE,34,0.0,4.0,86,0.00,,---,0.00,VWS V14.01,2013-03-06 01:39:00,
2013-03-05 20:44:00,39.1,35.3,29.99,NNE,33,0.0,1.0,86,0.00,,---,0.00,VWS V14.01,2013-03-06 01:44:00,
2013-03-05 20:49:00,39.1,35.3,29.99,NNE,33,0.0,2.0,86,0.00,,---,0.00,VWS V14.01,2013-03-06 01:49:00,
2013-03-05 20:59:00,39.0,35.2,29.99,NE,34,0.0,2.0,86,0.00,,---,0.00,VWS V14.01,2013-03-06 01:59:00,
2013-03-05 21:04:00,38.9,35.1,29.99,NE,34,0.0,2.0,86,0.00,,---,0.00,VWS V14.01,2013-03-06 02:04:00,
2013-03-05 21:09:00,38.9,35.1,29.98,NNE,33,2.0,2.0,86,0.00,,---,0.00,VWS V14.01,2013-03-06 02:09:00,
2013-03-05 21:19:00,38.8,35.0,29.98,NE,34,0.0,3.0,86,0.00,,---,0.00,VWS V14.01,2013-03-06 02:19:00,
2013-03-05 21:24:00,38.8,35.0,29.98,NNE,33,0.0,3.0,86,0.00,,---,0.00,VWS V14.01,2013-03-06 02:24:00,
2013-03-05 21:34:00,38.6,35.1,29.98,NE,34,2.0,3.0,87,0.00,,---,0.00,VWS V14.01,2013-03-06 02:34:00,
2013-03-05 21:39:00,38.5,34.7,29.98,NE,34,2.0,4.0,86,0.00,,---,0.00,VWS V14.01,2013-03-06 02:39:00,
2013-03-05 21:44:00,38.5,35.0,29.98,NE,34,3.0,3.0,87,0.00,,---,0.00,VWS V14.01,2013-03-06 02:44:00,
2013-03-05 21:49:00,38.4,34.9,29.98,NE,34,3.0,3.0,87,0.00,,---,0.00,VWS V14.01,2013-03-06 02:49:00,
2013-03-05 21:54:00,38.4,34.9,29.98,NNE,33,4.0,4.0,87,0.00,,---,0.00,VWS V14.01,2013-03-06 02:54:00,
2013-03-05 21:59:00,38.3,34.8,29.98,NE,34,3.0,4.0,87,0.00,,---,0.00,VWS V14.01,2013-03-06 02:59:00,
2013-03-05 22:04:00,38.2,34.7,29.98,NE,34,3.0,4.0,87,0.00,,---,0.00,VWS V14.01,2013-03-06 03:04:00,
2013-03-05 22:09:00,38.1,34.6,29.98,NNE,33,1.0,4.0,87,0.00,,---,0.00,VWS V14.01,2013-03-06 03:09:00,
2013-03-05 22:14:00,38.1,34.6,29.98,NE,34,2.0,3.0,87,0.00,,---,0.00,VWS V14.01,2013-03-06 03:14:00,
2013-03-05 22:19:00,38.0,34.5,29.99,NE,34,2.0,3.0,87,0.00,,---,0.00,VWS V14.01,2013-03-06 03:19:00,
2013-03-05 22:29:00,37.7,34.2,29.99,NNE,33,2.0,3.0,87,0.00,,---,0.00,VWS V14.01,2013-03-06 03:29:00,
2013-03-05 22:34:00,37.5,34.0,29.99,NE,34,0.0,2.0,87,0.00,,---,0.00,VWS V14.01,2013-03-06 03:34:00,
2013-03-05 22:39:00,37.4,33.9,30.00,NNE,33,0.0,0.0,87,0.00,,---,0.00,VWS V14.01,2013-03-06 03:39:00,
2013-03-05 22:44:00,37.4,34.2,30.00,NNE,33,1.0,2.0,88,0.00,,---,0.00,VWS V14.01,2013-03-06 03:44:00,
2013-03-05 22:49:00,37.5,34.3,30.00,NE,34,0.0,3.0,88,0.00,,---,0.00,VWS V14.01,2013-03-06 03:49:00,
2013-03-05 22:54:00,37.8,34.6,30.00,NE,34,2.0,3.0,88,0.00,,---,0.00,VWS V14.01,2013-03-06 03:54:00,
2013-03-05 22:59:00,37.9,34.7,30.00,NNE,33,2.0,4.0,88,0.00,,---,0.00,VWS V14.01,2013-03-06 03:59:00,
2013-03-05 23:04:00,38.0,34.8,30.00,NE,34,0.0,5.0,88,0.00,,---,0.00,VWS V14.01,2013-03-06 04:04:00,
2013-03-05 23:14:00,37.7,34.5,30.01,NE,34,3.0,3.0,88,0.00,,---,0.00,VWS V14.01,2013-03-06 04:14:00,
2013-03-05 23:24:00,37.3,34.4,30.01,NNE,33,1.0,3.0,89,0.00,,---,0.00,VWS V14.01,2013-03-06 04:24:00,
2013-03-05 23:29:00,37.2,34.3,30.01,NE,34,0.0,2.0,89,0.00,,---,0.00,VWS V14.01,2013-03-06 04:29:00,
2013-03-05 23:34:00,37.1,34.2,30.01,NE,34,0.0,2.0,89,0.00,,---,0.00,VWS V14.01,2013-03-06 04:34:00,
2013-03-05 23:39:00,37.1,34.2,30.01,NNE,33,3.0,3.0,89,0.00,,---,0.00,VWS V14.01,2013-03-06 04:39:00,
2013-03-05 23:49:00,37.7,35.0,30.01,North,10,5.0,7.0,90,0.00,,---,0.00,VWS V14.01,2013-03-06 04:49:00,
2013-03-05 23:54:00,37.7,35.0,30.01,North,10,2.0,5.0,90,0.00,,---,0.00,VWS V14.01,2013-03-06 04:54:00,
2013-03-05 23:59:00,37.8,35.1,30.00,North,10,0.0,4.0,90,0.00,,---,0.00,VWS V14.01,2013-03-06 04:59:00,